DW5861 Weather Reports


Display with metric or nautical units.
time (UTC)temp
F
wind
direction
speed
MPH
gust
MPH
rain 1hr
in
rain 24hr
in
rain mn
in
humidity
%
barometer
mb
20260905030004 82 193 1.0 4.0 0.00 0.00 0.00 83 1013.0
20260905025504 82 185 2.0 4.0 0.00 0.00 0.00 83 1013.0
20260905025004 82 173 1.0 4.0 0.00 0.00 0.00 83 1013.0
20260905024504 82 168 1.0 3.0 0.00 0.00 0.00 83 1013.0
20260905024004 82 178 1.0 2.0 0.00 0.00 0.00 82 1012.9
20260905023504 82 192 1.0 2.0 0.00 0.00 0.00 82 1012.7
20260905023004 82 198 1.0 2.0 0.00 0.00 0.00 82 1012.6
20260905022504 82 186 1.0 2.0 0.00 0.00 0.00 81 1012.5
20260905022004 82 181 1.0 2.0 0.00 0.00 0.00 81 1012.4
20260905021504 83 180 1.0 3.0 0.00 0.00 0.00 81 1012.3
20260905021006 83 179 1.0 3.0 0.00 0.00 0.00 80 1012.3
20260905020504 83 189 1.0 2.0 0.00 0.00 0.00 80 1012.2
20260905020004 83 201 1.0 2.0 0.00 0.00 0.00 79 1012.0
20260905015504 83 193 1.0 2.0 0.00 0.00 0.00 79 1012.0
20260905015004 84 187 1.0 2.0 0.00 0.00 0.00 78 1011.8
20260905014504 84 181 0.0 2.0 0.00 0.00 0.00 77 1011.8
20260905014004 84 169 0.0 1.0 0.00 0.00 0.00 76 1011.8
20260905013504 84 171 1.0 2.0 0.00 0.00 0.00 76 1011.6
20260905013004 85 177 1.0 2.0 0.00 0.00 0.00 75 1011.5
20260905012525 85 170 1.0 2.0 0.00 0.00 0.00 74 1011.4
20260905012004 85 172 1.0 2.0 0.00 0.00 0.00 74 1011.5
20260905011504 86 180 1.0 2.0 0.00 0.00 0.00 73 1011.4
20260905011004 86 193 1.0 2.0 0.00 0.00 0.00 72 1011.4
20260905010525 86 185 1.0 3.0 0.00 0.00 0.00 71 1011.5
20260905010004 86 178 1.0 3.0 0.00 0.00 0.00 70 1011.5
20260905005504 87 184 1.0 2.0 0.00 0.00 0.00 69 1011.5
20260905005004 87 164 1.0 2.0 0.00 0.00 0.00 69 1011.5
20260905004504 88 136 1.0 2.0 0.00 0.00 0.00 68 1011.5
20260905004004 88 147 1.0 2.0 0.00 0.00 0.00 69 1011.4
20260905003504 89 210 1.0 2.0 0.00 0.00 0.00 69 1011.4
20260905003004 90 208 1.0 2.0 0.00 0.00 0.00 69 1011.4
20260905002504 90 201 1.0 2.0 0.00 0.00 0.00 66 1011.5
20260905002004 90 208 1.0 2.0 0.00 0.00 0.00 62 1011.5
20260905001504 91 194 1.0 3.0 0.00 0.00 0.00 61 1011.5
20260905001004 91 172 1.0 3.0 0.00 0.00 0.00 61 1011.5
20260905000525 91 162 2.0 5.0 0.00 0.00 0.00 61 1011.5
20260905000004 92 164 2.0 5.0 0.00 0.00 0.00 60 1011.6
20260904235504 92 152 1.0 4.0 0.00 0.00 0.00 60 1011.5
20260904235004 92 145 1.0 4.0 0.00 0.00 0.00 59 1011.5
20260904234504 92 155 1.0 4.0 0.00 0.00 0.00 58 1011.4
20260904234004 92 155 1.0 3.0 0.00 0.00 0.00 58 1011.3
20260904233504 93 153 2.0 4.0 0.00 0.00 0.00 57 1011.3
20260904233004 93 140 1.0 4.0 0.00 0.00 0.00 56 1011.3
20260904232504 93 145 2.0 3.0 0.00 0.00 0.00 55 1011.3
20260904232004 94 153 2.0 4.0 0.00 0.00 0.00 54 1011.2
20260904231504 94 155 2.0 4.0 0.00 0.00 0.00 54 1011.1
20260904231004 94 151 2.0 6.0 0.00 0.00 0.00 54 1011.1
20260904230504 95 159 3.0 6.0 0.00 0.00 0.00 54 1011.1
20260904230004 95 171 3.0 6.0 0.00 0.00 0.00 54 1011.1
20260904225504 95 179 3.0 7.0 0.00 0.00 0.00 56 1011.1
20260904225004 95 164 3.0 7.0 0.00 0.00 0.00 54 1011.1
20260904224504 96 156 2.0 6.0 0.00 0.00 0.00 56 1011.2
20260904224004 95 137 2.0 4.0 0.00 0.00 0.00 57 1011.1
20260904223525 95 142 2.0 6.0 0.00 0.00 0.00 58 1011.2
20260904223004 95 148 2.0 6.0 0.00 0.00 0.00 58 1011.1
20260904222504 95 132 3.0 6.0 0.00 0.00 0.00 58 1011.1
20260904222004 96 155 3.0 6.0 0.00 0.00 0.00 58 1011.1
20260904221504 96 160 3.0 7.0 0.00 0.00 0.00 57 1011.0
20260904221025 96 153 3.0 7.0 0.00 0.00 0.00 57 1011.0
20260904220505 96 147 4.0 9.0 0.00 0.00 0.00 57 1011.0
20260904220004 96 163 3.0 9.0 0.00 0.00 0.00 56 1011.1
20260904215504 97 184 2.0 5.0 0.00 0.00 0.00 57 1011.1
20260904215004 96 136 2.0 5.0 0.00 0.00 0.00 57 1011.2
20260904214504 96 138 2.0 6.0 0.00 0.00 0.00 58 1011.3
20260904214004 96 165 3.0 7.0 0.00 0.00 0.00 59 1011.3
20260904213504 96 165 4.0 8.0 0.00 0.00 0.00 58 1011.3
20260904213004 96 157 4.0 11.0 0.00 0.00 0.00 60 1011.4
20260904212504 96 158 4.0 11.0 0.00 0.00 0.00 59 1011.5
20260904212004 96 150 3.0 8.0 0.00 0.00 0.00 58 1011.5
20260904211504 96 162 4.0 10.0 0.00 0.00 0.00 59 1011.5
20260904211025 96 164 4.0 10.0 0.00 0.00 0.00 60 1011.6
20260904210504 95 143 4.0 8.0 0.00 0.00 0.00 60 1011.6
20260904210025 96 152 3.0 8.0 0.00 0.00 0.00 58 1011.6
20260904205504 97 169 2.0 7.0 0.00 0.00 0.00 57 1011.6
20260904205004 95 144 2.0 5.0 0.00 0.00 0.00 58 1011.7
20260904204504 96 148 2.0 6.0 0.00 0.00 0.00 56 1011.9
20260904204004 96 162 2.0 6.0 0.00 0.00 0.00 56 1011.9
20260904203504 94 340 2.0 5.0 0.00 0.00 0.00 61 1011.9
20260904203004 93 12 3.0 6.0 0.00 0.00 0.00 60 1012.0
20260904202525 95 130 2.0 6.0 0.00 0.00 0.00 59 1012.0
20260904202004 93 298 1.0 3.0 0.00 0.00 0.00 63 1012.1
20260904201504 92 134 1.0 2.0 0.00 0.00 0.00 65 1012.2
20260904201004 94 128 1.0 4.0 0.00 0.00 0.00 63 1012.3
20260904200504 95 133 2.0 5.0 0.00 0.00 0.00 61 1012.5
20260904200004 96 147 2.0 5.0 0.00 0.00 0.00 57 1012.5
20260904195504 97 164 2.0 5.0 0.00 0.00 0.00 57 1012.5
20260904195004 95 171 2.0 5.0 0.00 0.00 0.00 60 1012.7
20260904194504 96 173 3.0 7.0 0.00 0.00 0.00 58 1012.7
20260904194004 97 193 3.0 7.0 0.00 0.00 0.00 59 1012.8
20260904193504 95 205 3.0 7.0 0.00 0.00 0.00 60 1012.9
20260904193004 95 217 3.0 6.0 0.00 0.00 0.00 61 1012.9
20260904192504 94 231 3.0 6.0 0.00 0.00 0.00 64 1013.0
20260904192003 94 237 2.0 6.0 0.00 0.00 0.00 64 1013.1
20260904191504 92 244 2.0 4.0 0.00 0.00 0.00 69 1013.1
20260904191025 90 225 2.0 4.0 0.00 0.00 0.00 70 1013.2
20260904190504 91 214 2.0 4.0 0.00 0.00 0.00 69 1013.3
20260904190004 91 220 2.0 3.0 0.00 0.00 0.00 68 1013.3
20260904185503 89 228 1.0 3.0 0.00 0.00 0.00 73 1013.3
20260904185004 89 280 1.0 3.0 0.00 0.00 0.00 72 1013.5
20260904184504 89 13 2.0 4.0 0.00 0.00 0.00 70 1013.6
20260904184003 90 53 2.0 4.0 0.00 0.00 0.00 68 1013.7
20260904183504 90 135 1.0 3.0 0.00 0.00 0.00 70 1013.7
20260904183004 90 182 1.0 2.0 0.00 0.00 0.00 68 1013.8
20260904182525 90 210 1.0 2.0 0.00 0.00 0.00 71 1013.9
20260904182003 90 268 0.0 2.0 0.00 0.00 0.00 71 1013.8
20260904181503 90 278 0.0 2.0 0.00 0.00 0.00 71 1013.8
20260904181025 89 289 1.0 3.0 0.00 0.00 0.00 71 1013.9
20260904180503 89 332 2.0 4.0 0.00 0.00 0.00 70 1013.9
20260904180025 90 352 2.0 4.0 0.00 0.00 0.00 71 1013.9
20260904175504 91 14 2.0 5.0 0.00 0.00 0.00 69 1013.9
20260904175004 93 30 2.0 5.0 0.00 0.00 0.00 69 1014.0
20260904174503 92 7 2.0 5.0 0.00 0.00 0.00 66 1014.0
20260904174025 92 273 1.0 4.0 0.00 0.00 0.00 66 1014.1
20260904173504 91 240 1.0 2.0 0.00 0.00 0.00 76 1014.1
20260904173004 88 289 1.0 2.0 0.00 0.00 0.00 75 1014.2
20260904172503 87 333 1.0 3.0 0.00 0.00 0.00 75 1014.3
20260904172004 87 2 1.0 3.0 0.00 0.00 0.00 75 1014.5
20260904171503 88 8 1.0 2.0 0.00 0.00 0.00 75 1014.6
20260904171003 88 9 1.0 3.0 0.00 0.00 0.00 74 1014.7
20260904170503 88 17 1.0 3.0 0.00 0.00 0.00 73 1014.7
20260904170004 88 342 1.0 2.0 0.00 0.00 0.00 72 1014.8
20260904165503 89 309 1.0 2.0 0.00 0.00 0.00 72 1014.8
20260904165003 89 283 1.0 3.0 0.00 0.00 0.00 74 1015.0
20260904164504 90 304 1.0 3.0 0.00 0.00 0.00 71 1014.9
20260904164003 90 327 1.0 3.0 0.00 0.00 0.00 73 1015.0
20260904163504 91 234 2.0 6.0 0.00 0.00 0.00 70 1015.0
20260904163003 93 223 2.0 6.0 0.00 0.00 0.00 66 1015.0
20260904162503 93 210 2.0 5.0 0.00 0.00 0.00 67 1015.1
20260904162003 93 191 2.0 5.0 0.00 0.00 0.00 67 1015.0
20260904161504 91 354 2.0 4.0 0.00 0.00 0.00 71 1014.9
20260904161003 92 7 2.0 4.0 0.00 0.00 0.00 68 1015.0
20260904160503 93 109 1.0 3.0 0.00 0.00 0.00 68 1015.0
20260904160004 90 25 1.0 3.0 0.00 0.00 0.00 72 1015.1
20260904155503 90 24 1.0 3.0 0.00 0.01 0.00 75 1015.0
20260904155003 89 105 1.0 3.0 0.00 0.01 0.00 74 1015.0
20260904154504 88 133 1.0 3.0 0.00 0.03 0.00 74 1014.9
20260904154024 88 169 1.0 4.0 0.00 0.06 0.00 75 1014.9
20260904153504 88 177 2.0 4.0 0.00 0.09 0.00 75 1014.9
20260904153003 88 197 2.0 3.0 0.00 0.09 0.00 77 1014.9
20260904152503 88 155 2.0 5.0 0.00 0.09 0.00 75 1014.9
20260904152003 88 135 2.0 5.0 0.00 0.09 0.00 76 1014.9
20260904151503 88 141 1.0 4.0 0.00 0.09 0.00 79 1014.9
20260904151003 87 133 2.0 4.0 0.00 0.09 0.00 79 1014.9
20260904150503 87 153 2.0 5.0 0.00 0.09 0.00 80 1015.0
20260904150004 87 165 3.0 5.0 0.00 0.10 0.00 82 1015.0
20260904145504 86 151 2.0 5.0 0.00 0.11 0.00 84 1015.0
20260904145003 85 95 1.0 4.0 0.00 0.12 0.00 88 1014.9
20260904144503 84 210 1.0 4.0 0.00 0.12 0.00 90 1014.9
20260904144003 83 160 2.0 4.0 0.00 0.14 0.00 93 1014.9
20260904143503 82 142 2.0 3.0 0.00 0.15 0.00 95 1014.9
20260904143003 81 112 2.0 4.0 0.00 0.15 0.00 96 1014.9
20260904142524 81 118 2.0 4.0 0.00 0.15 0.00 96 1014.9
20260904142004 81 129 1.0 4.0 0.00 0.15 0.00 96 1014.9
20260904141525 80 147 1.0 4.0 0.00 0.15 0.00 96 1014.8
20260904141025 80 166 2.0 4.0 0.00 0.15 0.00 96 1014.8
20260904140504 80 160 2.0 4.0 0.00 0.15 0.00 96 1014.7
20260904140004 79 161 1.0 4.0 0.00 0.15 0.00 96 1014.8
20260904135503 78 154 1.0 2.0 0.00 0.15 0.00 96 1014.7
20260904135003 78 152 1.0 2.0 0.00 0.15 0.00 96 1014.7
20260904134503 77 252 1.0 2.0 0.00 0.15 0.00 96 1014.7
20260904134003 77 278 1.0 2.0 0.00 0.15 0.00 96 1014.6
20260904133503 77 200 1.0 3.0 0.00 0.15 0.00 96 1014.6
20260904133003 76 156 1.0 3.0 0.00 0.15 0.00 96 1014.6
20260904132503 76 108 0.0 2.0 0.00 0.15 0.00 96 1014.5
20260904132004 75 140 1.0 2.0 0.00 0.15 0.00 96 1014.4
20260904131503 75 168 0.0 2.0 0.00 0.15 0.00 96 1014.4
20260904131025 75 241 0.0 1.0 0.00 0.15 0.00 95 1014.3
20260904130524 74 236 0.0 1.0 0.00 0.15 0.00 95 1014.3
20260904130003 74 193 0.0 1.0 0.00 0.15 0.00 95 1014.2
20260904125524 74 231 0.0 1.0 0.00 0.15 0.00 95 1014.2
20260904125003 74 315 0.0 1.0 0.00 0.15 0.00 95 1014.3
20260904124504 74 360 0.0 1.0 0.00 0.15 0.00 95 1014.2
20260904124024 74 11 0.0 1.0 0.00 0.15 0.00 95 1014.2
20260904123503 74 19 0.0 1.0 0.00 0.15 0.00 95 1014.2
20260904123024 74 358 0.0 1.0 0.00 0.15 0.00 95 1014.1
20260904122503 74 82 0.0 1.0 0.00 0.15 0.00 95 1014.1
20260904122003 74 109 0.0 1.0 0.00 0.15 0.00 95 1014.0
20260904121503 74 74 0.0 2.0 0.00 0.16 0.00 95 1014.1
20260904121003 74 78 0.0 2.0 0.00 0.16 0.00 95 1014.0
20260904120503 74 79 0.0 2.0 0.00 0.16 0.00 95 1014.0
20260904120004 74 72 0.0 2.0 0.00 0.16 0.00 95 1013.8
20260904115503 74 275 0.0 1.0 0.00 0.16 0.00 95 1013.8
20260904115003 74 276 0.0 1.0 0.00 0.16 0.00 95 1013.7
20260904114503 74 278 0.0 1.0 0.00 0.16 0.00 95 1013.7
20260904114003 74 287 0.0 1.0 0.00 0.16 0.00 95 1013.7
20260904113503 74 258 0.0 1.0 0.00 0.16 0.00 95 1013.7
20260904113003 74 332 0.0 1.0 0.00 0.16 0.00 95 1013.7
20260904112503 74 274 0.0 1.0 0.00 0.16 0.00 94 1013.8
20260904112025 74 264 1.0 2.0 0.00 0.17 0.00 94 1013.7
20260904111503 74 261 0.0 2.0 0.00 0.17 0.00 94 1013.7
20260904111003 74 355 0.0 1.0 0.00 0.17 0.00 95 1013.6
20260904110503 74 10 0.0 1.0 0.00 0.17 0.00 95 1013.6
20260904110003 74 46 0.0 2.0 0.00 0.17 0.00 94 1013.6
20260904105503 74 62 1.0 2.0 0.00 0.17 0.00 95 1013.6
20260904105003 74 62 1.0 2.0 0.00 0.17 0.00 95 1013.5
20260904104503 74 58 1.0 2.0 0.00 0.18 0.00 95 1013.6
20260904104003 74 50 1.0 2.0 0.00 0.18 0.00 95 1013.6
20260904103503 74 37 1.0 2.0 0.00 0.18 0.00 94 1013.6
20260904103003 74 32 1.0 2.0 0.00 0.18 0.00 94 1013.6
20260904102503 74 7 1.0 2.0 0.00 0.18 0.00 94 1013.5
20260904102003 74 6 1.0 2.0 0.00 0.18 0.00 94 1013.6
20260904101524 74 30 0.0 1.0 0.00 0.18 0.00 94 1013.5
20260904101024 74 41 0.0 1.0 0.00 0.18 0.00 94 1013.5
20260904100503 74 64 0.0 1.0 0.00 0.18 0.00 94 1013.4
20260904100003 74 51 0.0 1.0 0.00 0.18 0.00 94 1013.4
20260904095503 74 276 0.0 1.0 0.00 0.18 0.00 94 1013.4
20260904095003 74 316 0.0 1.0 0.00 0.18 0.00 94 1013.4
20260904094504 74 35 1.0 2.0 0.00 0.18 0.00 94 1013.5
20260904094003 74 31 1.0 2.0 0.00 0.18 0.00 94 1013.4
20260904093503 74 21 0.0 2.0 0.00 0.18 0.00 94 1013.5
20260904093003 74 331 0.0 1.0 0.00 0.18 0.00 94 1013.4
20260904092503 74 338 1.0 1.0 0.00 0.18 0.00 94 1013.4
20260904092024 74 341 0.0 1.0 0.00 0.18 0.00 94 1013.4
20260904091503 74 314 0.0 1.0 0.00 0.18 0.00 94 1013.4
20260904091003 74 295 0.0 1.0 0.00 0.18 0.00 94 1013.5
20260904090503 74 327 0.0 1.0 0.00 0.18 0.00 93 1013.5
20260904090004 74 264 0.0 1.0 0.00 0.19 0.00 93 1013.5
20260904085503 74 258 0.0 1.0 0.00 0.19 0.00 93 1013.4
20260904085003 74 58 0.0 1.0 0.00 0.19 0.00 93 1013.4
20260904084503 74 40 1.0 2.0 0.00 0.19 0.00 94 1013.4
20260904084003 74 43 1.0 2.0 0.00 0.19 0.00 93 1013.5
20260904083503 74 41 0.0 2.0 0.00 0.19 0.00 93 1013.4
20260904083024 74 26 0.0 1.0 0.00 0.19 0.00 93 1013.4
20260904082524 74 51 1.0 1.0 0.00 0.19 0.00 93 1013.4
20260904082003 74 73 0.0 1.0 0.00 0.19 0.00 93 1013.3
20260904081503 74 166 0.0 1.0 0.00 0.19 0.00 93 1013.2
20260904081024 74 166 0.0 1.0 0.00 0.19 0.00 93 1013.1
20260904080503 74 263 0.0 1.0 0.00 0.19 0.00 93 1013.1
20260904080003 74 262 0.0 1.0 0.00 0.19 0.00 93 1013.2
20260904075503 74 253 0.0 1.0 0.00 0.19 0.00 92 1013.2
20260904075003 74 227 0.0 1.0 0.00 0.19 0.00 92 1013.3
20260904074503 74 224 0.0 1.0 0.00 0.19 0.00 92 1013.3
20260904074003 75 218 0.0 1.0 0.00 0.19 0.00 93 1013.3
20260904073503 75 71 0.0 1.0 0.00 0.19 0.00 93 1013.2
20260904073003 75 83 0.0 2.0 0.00 0.19 0.00 93 1013.2
20260904072506 75 77 0.0 2.0 0.00 0.19 0.00 92 1013.3
20260904072024 75 40 0.0 2.0 0.00 0.19 0.00 92 1013.3
20260904071503 75 38 1.0 2.0 0.00 0.19 0.00 92 1013.2
20260904071003 75 41 1.0 2.0 0.00 0.19 0.00 92 1013.3
20260904070524 75 39 0.0 2.0 0.00 0.20 0.00 92 1013.3
20260904070003 75 97 0.0 1.0 0.00 0.20 0.00 92 1013.3
20260904065503 75 62 1.0 2.0 0.00 0.20 0.00 92 1013.2
20260904065003 75 49 0.0 2.0 0.00 0.20 0.00 92 1013.2
20260904064524 75 54 0.0 1.0 0.00 0.20 0.00 92 1013.1
20260904064024 75 49 0.0 1.0 0.00 0.20 0.00 92 1013.1
20260904063503 75 338 0.0 1.0 0.00 0.20 0.00 92 1013.0
20260904063003 75 325 1.0 2.0 0.00 0.20 0.00 92 1013.1
20260904062503 75 336 1.0 2.0 0.00 0.20 0.00 92 1013.0
20260904062003 75 12 1.0 2.0 0.00 0.20 0.00 92 1013.0
20260904061503 75 30 0.0 2.0 0.00 0.20 0.00 92 1012.9
20260904061003 75 207 0.0 1.0 0.00 0.20 0.00 91 1012.9
20260904060503 75 184 0.0 1.0 0.00 0.20 0.00 91 1012.9
20260904060024 75 161 1.0 1.0 0.00 0.20 0.00 91 1012.9
20260904055524 75 142 0.0 1.0 0.00 0.20 0.00 91 1012.8
20260904055003 75 191 1.0 2.0 0.00 0.20 0.00 91 1012.8
20260904054524 75 190 1.0 3.0 0.00 0.20 0.00 91 1012.8
20260904054003 76 187 1.0 3.0 0.00 0.20 0.00 91 1012.8
20260904053503 76 201 1.0 2.0 0.00 0.20 0.00 91 1012.7
20260904053003 76 206 1.0 2.0 0.00 0.20 0.00 91 1012.5
20260904052503 76 189 1.0 1.0 0.00 0.20 0.00 91 1012.5
20260904052024 76 147 1.0 2.0 0.00 0.20 0.00 91 1012.5
20260904051503 76 153 1.0 2.0 0.00 0.20 0.00 91 1012.4
20260904051003 76 198 1.0 3.0 0.00 0.20 0.00 90 1012.3
20260904050504 76 205 1.0 3.0 0.00 0.20 0.00 90 1012.3
20260904050003 76 207 1.0 3.0 0.00 0.20 0.00 90 1012.4
20260904045503 76 211 1.0 2.0 0.00 0.20 0.20 90 1012.3
20260904045004 76 205 1.0 2.0 0.00 0.20 0.20 90 1012.4
20260904044524 76 172 1.0 2.0 0.00 0.20 0.20 90 1012.5
20260904044003 76 123 0.0 2.0 0.00 0.20 0.20 89 1012.6
20260904043503 76 13 0.0 1.0 0.00 0.20 0.20 89 1012.6
20260904043004 76 355 0.0 1.0 0.00 0.20 0.20 89 1012.6
20260904042525 76 26 0.0 1.0 0.00 0.20 0.20 89 1012.6
20260904042005 76 34 0.0 1.0 0.00 0.20 0.20 89 1012.6
20260904041504 77 118 0.0 2.0 0.00 0.20 0.20 89 1012.7
20260904041004 77 145 0.0 2.0 0.00 0.20 0.20 89 1012.7
20260904040504 77 185 1.0 3.0 0.00 0.20 0.20 89 1012.8
20260904040004 77 204 2.0 3.0 0.00 0.20 0.20 89 1012.9
20260904035504 77 206 2.0 3.0 0.00 0.21 0.20 88 1012.9
20260904035004 77 203 1.0 3.0 0.00 0.21 0.20 88 1012.9
20260904034504 77 196 1.0 2.0 0.00 0.21 0.20 88 1012.9
20260904034004 77 139 1.0 2.0 0.00 0.21 0.20 88 1012.9
20260904033504 78 167 1.0 2.0 0.00 0.21 0.20 88 1012.9
20260904033025 78 198 1.0 3.0 0.00 0.21 0.20 88 1012.9
20260904032504 78 207 1.0 3.0 0.00 0.21 0.20 88 1012.9
20260904032004 78 209 1.0 3.0 0.00 0.22 0.20 87 1013.0
20260904031506 78 207 1.0 3.0 0.00 0.22 0.20 87 1013.0
20260904031007 78 197 1.0 3.0 0.00 0.22 0.20 87 1013.0
20260904030507 78 186 1.0 3.0 0.00 0.23 0.20 87 1013.0